[[{"header":{"parameterUnit":"m.s-1","parameterCategory":1,"la1":30.2991,"la2":30.254,"lo1":-89.0895,"lo2":-89.0444,"dy":0.0017,"dx":0.0017,"nx":28,"ny":28,"refTime":"2025-06-07T03:00:00:Z","depth":0,"parameterNumber":2,"parameterNumberName":"U-component_of_WINDS"},"data":[0,0,0,0,0,0,0,0,0,0,0,0,0,0,0,0,0,0,0,0,0,0,0,0,0,0,0,0,0,0,0,0,0,0,0,0,0,0,0,0,0,0,0,0,0,0,0,0,0,0,0,0,0,0,0,0,0,0,1.9172,1.9174,0,1.9361,1.9363,1.9365,1.9398,1.9397,1.9395,1.9394,1.9596,1.9602,1.9609,0,0,0,0,0,0,0,0,0,0,0,0,0,1.8852,1.8858,1.9172,1.9174,1.9176,1.9361,1.9363,1.9366,1.9399,1.9397,1.9395,1.9393,1.9593,1.9602,1.961,0,0,0,0,0,0,0,0,0,0,0,0,0,1.9011,1.886,1.9171,1.9215,1.9221,1.936,1.9363,1.9366,1.9399,1.9397,1.9394,1.9392,1.9591,1.9601,1.9611,1.9723,0,0,1.9642,1.9647,0,0,0,0,0,0,0,0,1.9002,1.9023,1.9206,1.9212,1.9219,1.9353,1.9325,1.9486,1.94,1.9332,1.9394,1.9391,1.9518,1.9534,1.9575,1.9732,1.9741,1.9643,1.965,1.9654,1.9657,0,0,0,0,0,0,0,1.8991,1.9015,1.9247,1.9209,1.9217,1.9229,1.9249,1.9355,1.9436,1.9337,1.934,1.9362,1.9521,1.9565,1.958,1.9744,1.9643,1.9652,1.9659,1.9663,2.0012,2.0015,0,0,0,0,0,0,1.8971,1.9006,1.9241,1.9252,1.9102,1.9237,1.9259,1.9313,1.9435,1.9451,1.9364,1.9363,1.9548,1.9568,1.9587,1.9732,1.9654,1.9664,1.967,2.0009,2.0013,2.0016,0,0,0,0,0,0,1.8964,1.8991,1.9233,1.913,1.9162,1.9245,1.9305,1.9318,1.9362,1.9455,1.947,1.9393,1.9547,1.9573,1.969,1.9739,1.9668,1.9678,2.0005,2.001,2.0015,2.0018,0,0,0,0,0,0,1.8954,1.8989,1.9028,1.913,1.9167,1.9329,1.9308,1.9323,1.9378,1.9379,1.9486,1.9502,1.9547,1.9675,1.97,1.9752,1.9686,2.0002,2.0008,2.0013,2.0014,2.0023,2.003,0,0,0,0,0,1.8943,1.9022,1.903,1.9058,1.9218,1.9331,1.9353,1.9401,1.9382,1.9426,1.9487,1.9499,1.9729,1.9686,1.9716,1.9771,1.9999,2.0006,2.0013,2.0011,2.0021,2.0029,0,0,0,0,0,0,1.8924,1.9036,1.9046,1.9159,1.9236,1.9337,1.9392,1.9409,1.9494,1.9491,1.955,1.9574,1.9691,1.9742,1.9693,1.9891,1.9863,1.9876,1.9852,1.9862,1.987,1.9856,1.9694,0,0,0,0,0,1.8933,1.9012,1.9107,1.9198,1.9236,1.9308,1.9359,1.939,1.9472,1.9505,1.9575,1.9657,1.9749,1.9808,1.9897,2.0022,2.005,2.0075,2.0083,2.0089,2.01,2.0178,2.0193,2.0039,2.0039,2.0039,0,0,1.8952,1.9023,1.907,1.9197,1.9259,1.9346,1.9334,1.9424,1.9491,1.952,1.9636,1.969,1.9787,1.9911,1.9968,1.9958,2.0149,2.0098,2.0102,2.011,2.0187,2.0201,2.0214,2.0044,2.0043,2.0042,0,0,1.9032,1.9091,1.9177,1.9241,1.9336,1.9385,1.9405,1.9506,1.9543,1.966,1.9686,1.9768,1.9922,1.9993,2.0048,2.0163,2.018,2.0191,2.0232,2.0307,2.0319,2.033,2.0377,2.0392,2.0201,2.0202,2.0202,0,1.9045,1.9172,1.9219,1.931,1.9369,1.9399,1.949,1.9551,1.9671,1.9713,1.9698,1.9898,1.9965,2.0109,2.0138,2.018,2.0211,2.0179,2.0312,2.0324,2.0335,2.0381,2.0398,2.0203,2.0202,2.0202,2.0202,0,1.9186,1.9275,1.9334,1.9449,1.9514,1.9604,1.9671,1.9731,1.9759,1.981,1.9934,2.0016,2.0125,2.0161,2.0188,2.0312,2.0303,2.03,2.0274,2.035,2.0394,2.0412,2.0204,2.0204,2.0203,2.0203,0,0,1.9257,1.9401,1.9422,1.9479,1.9589,1.9661,1.9756,1.9862,1.9916,1.9999,2.0085,2.0219,2.0219,2.0282,2.0318,2.0383,2.0477,2.0374,2.0377,2.0394,2.0627,2.0631,2.065,2.0489,2.0492,2.0495,2.0621,0,1.9354,1.952,1.957,1.9713,1.9799,1.9833,1.9917,1.9997,2.005,2.0135,2.0194,2.029,2.0279,2.0319,2.0385,2.0451,2.0526,2.0443,2.0575,2.0579,2.0552,2.0672,2.0675,2.079,2.0637,2.064,2.0642,0,1.9487,1.9574,1.9725,1.9832,1.987,1.9944,2.0049,2.0128,2.0222,2.0257,2.0331,2.0363,2.047,2.0438,2.059,2.0533,2.0591,2.0632,2.0638,2.0655,2.0617,2.0696,2.0827,2.0846,2.0669,2.0667,2.0665,0,1.953,1.9685,1.9798,1.9844,1.9969,2.0022,2.0077,2.0168,2.0232,2.0325,2.0368,2.0473,2.0531,2.0614,2.0677,2.0646,2.0827,2.0797,2.0863,2.0862,2.0901,2.0898,2.1047,2.0931,2.0931,2.0931,2.093,0,1.9635,1.9728,1.9819,1.9889,1.9997,2.0055,2.0161,2.0219,2.0302,2.0387,2.0423,2.0503,2.0579,2.0671,2.0721,2.0844,2.0869,2.0904,2.0917,2.0903,2.0899,2.0943,2.0939,2.0936,2.0934,2.0934,2.0933,0,1.9701,1.9765,1.9891,2.0001,2.0031,2.0106,2.0202,2.0274,2.033,2.0438,2.0468,2.0556,2.0668,2.0737,2.0878,2.0913,2.105,2.1057,2.1017,2.1024,2.1088,2.1083,2.1273,2.1304,2.1163,2.1164,2.1165,0,1.9765,1.9837,1.9956,2.0015,2.0071,2.0165,2.023,2.0293,2.0361,2.0478,2.0538,2.0651,2.0745,2.0923,2.1003,2.1114,2.1128,2.1187,2.1144,2.1131,2.1135,2.1132,2.1142,2.1194,2.1196,2.1196,2.1197,0,1.9874,1.9904,1.9994,2.01,2.0176,2.0262,2.0348,2.0396,2.0475,2.055,2.0664,2.0737,2.0883,2.0998,2.1117,2.1179,2.1205,2.121,2.1232,2.122,2.1196,2.1216,2.1041,2.1206,2.1205,2.1204,2.1204,2.1203,1.9944,2.0013,2.0109,2.0212,2.0283,2.0365,2.044,2.0506,2.0601,2.0724,2.0756,2.0878,2.0978,2.114,2.1206,2.1305,2.1298,2.1328,2.1337,2.1344,2.1348,2.1177,2.1327,2.1326,2.1326,2.1326,2.1326,0,2.006,2.0124,2.0218,2.0338,2.0421,2.0435,2.0533,2.0603,2.0708,2.0798,2.0891,2.1027,2.114,2.123,2.1349,2.1411,2.1427,2.1441,2.1439,2.1455,2.1345,2.1317,2.1427,2.1427,2.1427,2.1427,2.1427,2.1427,2.0129,2.0249,2.0291,2.0449,2.0514,2.0632,2.0688,2.0766,2.0839,2.0988,2.1082,2.1139,2.1233,2.1359,2.1466,2.149,2.1535,2.1548,2.1575,2.1472,2.1461,2.1451,2.1424,2.1555,2.1556,2.1677,2.1678,2.1678]},{"header":{"parameterUnit":"m.s-1","parameterCategory":1,"la1":30.2991,"la2":30.254,"lo1":-89.0895,"lo2":-89.0444,"dy":0.0017,"dx":0.0017,"nx":28,"ny":28,"refTime":"2025-06-07T03:00:00:Z","depth":0,"parameterNumber":3,"parameterNumberName":"V-component_of_WINDS"},"data":[0,0,0,0,0,0,0,0,0,0,0,0,0,0,0,0,0,0,0,0,0,0,0,0,0,0,0,0,0,0,0,0,0,0,0,0,0,0,0,0,0,0,0,0,0,0,0,0,0,0,0,0,0,0,0,0,0,0,4.4221,4.4224,0,4.4513,4.4517,4.452,4.4574,4.4571,4.4569,4.4567,4.4863,4.4873,4.4883,0,0,0,0,0,0,0,0,0,0,0,0,0,4.3705,4.3714,4.422,4.4224,4.4228,4.4513,4.4517,4.4521,4.4574,4.4571,4.4568,4.4566,4.486,4.4871,4.4884,0,0,0,0,0,0,0,0,0,0,0,0,0,4.3956,4.3717,4.422,4.4289,4.4298,4.4512,4.4517,4.4522,4.4575,4.4571,4.4568,4.4564,4.4856,4.487,4.4885,4.505,0,0,4.4931,4.4938,0,0,0,0,0,0,0,0,4.3942,4.3975,4.4275,4.4284,4.4295,4.4503,4.4444,4.4699,4.4576,4.447,4.4567,4.4563,4.4746,4.477,4.4832,4.5064,4.5077,4.4933,4.4942,4.4949,4.4953,0,0,0,0,0,0,0,4.3924,4.3963,4.4336,4.4279,4.4291,4.4304,4.4336,4.4492,4.4624,4.4478,4.4483,4.4517,4.4751,4.4818,4.484,4.5081,4.4932,4.4946,4.4955,4.4961,4.5466,4.547,0,0,0,0,0,0,4.3895,4.3948,4.4327,4.4345,4.4106,4.4317,4.4352,4.444,4.4622,4.4647,4.452,4.4519,4.4794,4.4822,4.485,4.5059,4.4948,4.4963,4.4971,4.5462,4.5467,4.5472,0,0,0,0,0,0,4.3884,4.3928,4.4315,4.4148,4.4198,4.4329,4.4428,4.4448,4.4515,4.4654,4.4677,4.4565,4.4792,4.4829,4.5001,4.507,4.4969,4.4983,4.5457,4.5463,4.5469,4.5475,0,0,0,0,0,0,4.3869,4.3924,4.3988,4.4149,4.4207,4.4462,4.4432,4.4456,4.4541,4.4543,4.4702,4.4725,4.4792,4.4978,4.5016,4.5089,4.4995,4.5451,4.546,4.5467,4.5469,4.5481,4.5491,0,0,0,0,0,4.385,4.3976,4.3991,4.4037,4.429,4.4465,4.4498,4.4574,4.4547,4.4613,4.4702,4.472,4.5055,4.4995,4.5039,4.5117,4.5447,4.5457,4.5467,4.5464,4.5479,4.549,0,0,0,0,0,0,4.3819,4.3999,4.4017,4.4199,4.4317,4.4474,4.456,4.4586,4.4713,4.4708,4.4795,4.4831,4.4999,4.5074,4.5004,4.5288,4.5249,4.5268,4.5233,4.5248,4.5258,4.5238,4.5008,0,0,0,0,0,4.3833,4.3961,4.4111,4.4257,4.4316,4.4427,4.4506,4.4555,4.4679,4.4729,4.4831,4.495,4.5083,4.5169,4.5298,4.5479,4.5516,4.5554,4.5565,4.5573,4.5589,4.5694,4.5714,4.5504,4.5503,4.5503,0,0,4.3864,4.3978,4.4053,4.4254,4.4351,4.4482,4.4469,4.4607,4.4705,4.4749,4.492,4.4999,4.5138,4.5316,4.54,4.5384,4.5655,4.5585,4.5591,4.5603,4.5706,4.5726,4.5744,4.551,4.5509,4.5508,0,0,4.3988,4.4086,4.4221,4.4319,4.4466,4.454,4.4572,4.4727,4.4782,4.4954,4.4991,4.5108,4.5334,4.5433,4.5513,4.5676,4.5699,4.5715,4.5773,4.5874,4.5891,4.5906,4.5968,4.5989,4.573,4.5731,4.5731,0,4.4007,4.4207,4.4286,4.4425,4.4513,4.4561,4.4699,4.4789,4.497,4.503,4.501,4.5297,4.5394,4.5598,4.5638,4.57,4.5741,4.5699,4.5882,4.5898,4.5914,4.5974,4.5997,4.5732,4.5732,4.5732,4.5732,0,4.4226,4.4364,4.4455,4.4632,4.473,4.4867,4.4967,4.5056,4.5096,4.5172,4.5348,4.5465,4.5622,4.5673,4.5711,4.5883,4.587,4.5865,4.5829,4.5934,4.5992,4.6016,4.5734,4.5734,4.5733,4.5733,0,0,4.4339,4.456,4.4592,4.4675,4.4842,4.4951,4.5089,4.5244,4.5321,4.5444,4.5565,4.5756,4.5753,4.5844,4.5894,4.5982,4.6109,4.5967,4.5972,4.5993,4.631,4.6316,4.6341,4.6124,4.6128,4.6132,4.63,0,4.4486,4.474,4.4815,4.5027,4.5158,4.5205,4.5327,4.5443,4.5517,4.5638,4.5719,4.5856,4.584,4.5896,4.5985,4.6075,4.6175,4.6063,4.6238,4.6244,4.6207,4.6371,4.6377,4.653,4.6322,4.6326,4.6329,0,4.4692,4.4823,4.5049,4.5203,4.526,4.5369,4.5519,4.5633,4.5765,4.5813,4.5915,4.5959,4.6107,4.606,4.6266,4.6189,4.6264,4.6319,4.6327,4.6349,4.6296,4.6402,4.658,4.6605,4.6365,4.6362,4.636,0,4.4757,4.4989,4.5156,4.5224,4.5407,4.5483,4.5562,4.5691,4.578,4.5909,4.5969,4.6112,4.6192,4.6302,4.6384,4.6342,4.6584,4.6543,4.663,4.6628,4.6682,4.6678,4.6879,4.6723,4.6723,4.6723,4.6722,0,4.4916,4.5054,4.5188,4.5291,4.5447,4.5532,4.5684,4.5765,4.5879,4.5999,4.6047,4.6157,4.6257,4.6381,4.6444,4.6608,4.6642,4.6686,4.6702,4.6685,4.668,4.6738,4.6731,4.6729,4.6727,4.6726,4.6725,0,4.5017,4.5112,4.5298,4.5456,4.5499,4.5608,4.5743,4.5845,4.5921,4.6072,4.6112,4.6232,4.6381,4.6472,4.6659,4.6703,4.6884,4.6893,4.684,4.6849,4.6932,4.6925,4.7181,4.7221,4.7034,4.7036,4.7037,0,4.5114,4.5222,4.5393,4.5478,4.5559,4.5693,4.5786,4.5873,4.5967,4.6127,4.621,4.6362,4.6489,4.6725,4.6828,4.6973,4.6989,4.7069,4.7011,4.6991,4.6996,4.699,4.7003,4.708,4.7081,4.7083,4.7084,0,4.5278,4.5321,4.5453,4.5603,4.5712,4.5833,4.5954,4.602,4.6128,4.6231,4.6385,4.6484,4.6677,4.6829,4.6983,4.7064,4.7093,4.7101,4.7129,4.7115,4.7081,4.7105,4.6871,4.7095,4.7094,4.7093,4.7093,4.7092,4.5383,4.5483,4.562,4.5766,4.5867,4.5979,4.6084,4.6175,4.6306,4.6472,4.6515,4.6677,4.6808,4.7019,4.7103,4.7231,4.7219,4.7259,4.7271,4.728,4.7285,4.7057,4.7258,4.7258,4.7258,4.7258,4.7258,0,4.5553,4.5645,4.5778,4.5948,4.6063,4.6081,4.6216,4.6312,4.6455,4.6576,4.6701,4.6879,4.7027,4.7142,4.7294,4.7375,4.7392,4.7412,4.7409,4.7428,4.7284,4.7247,4.7396,4.7396,4.7396,4.7396,4.7396,4.7395,4.5656,4.5827,4.5886,4.6108,4.6197,4.6359,4.6435,4.654,4.6637,4.6836,4.696,4.7034,4.7154,4.7315,4.7451,4.7481,4.7537,4.7555,4.7588,4.7452,4.7437,4.7423,4.7389,4.7565,4.7565,4.7722,4.7724,4.7725]}]]